Location: ??????????
(31.2156°N, 29.9553°E)
Time: 04:25:02
(UTC+00:00)

Lacrosse 4 Rocket - Pass Details

Date: 03 March 2021
Orbit: 537 x 620 km, 68.0° (Epoch: 14 April)

Event Time Altitude Azimuth Distance (km) Brightness Sun altitude
Rises 17:29:39 0° 202° (SSW) 2,783 5.1 -20.0°
Reaches altitude 10° 17:31:50 10° 201° (SSW) 1,901 4.2 -20.4°
Maximum altitude 17:36:08 87° 111° (ESE) 602 1.3 -21.3°
Enters shadow 17:38:04 33° 25° (NNE) 1,022 2.5 -21.8°
